Location: Tom
(33.0437°N, 96.9452°W)
Time: 20:53:55
(UTC-06:00)

Envisat - Pass Details

Date: 28 January 2019
Orbit: 764 x 766 km, 98.2° (Epoch: 19 February)

Event Time Altitude Azimuth Distance (km) Brightness Sun altitude
Rises 18:42:02 0° 147° (SSE) 3,218 6.0 -10.0°
Reaches altitude 10° 18:44:27 10° 140° (SE) 2,295 5.2 -10.5°
Maximum altitude 18:49:08 40° 72° (ENE) 1,127 3.4 -11.4°
Drops below altitude 10° 18:53:51 10° 5° (N) 2,307 5.3 -12.4°
Sets 18:56:16 0° 358° (N) 3,236 6.1 -12.9°
